EXS57N GCTS-EGPH

Flight info

Callsign EXS57N
Flight time N/A
Altitude 32000
Route BIMBO DCT GALPA DCT MARUM/N0462F340 DCT ASMAR DCT DEMOS DCT SOSOV DCT MADEK/N0462F350 DCT AMPOP/N0460F340 DCT UPCAB DCT IJALA DCT EVRIN/N0460F350 DCT DUB DCT ROTEV DCT GOTNA DCT BLACA/N0434F250 P600 TUNSO
Aircraft B738/M-SDE2E3FGHIRWXY/LB1

Departure

Time 2026-04-27 11:02
Airport Tenerife Sur Airport (GCTS)

Arrival

Time N/A
Airport Edinburgh Airport (EGPH)
Time Latitude Longitude Altitude Speed Heading
2026-04-27 10:56 28.04500 -16.57629 217 ft 6 kts 68°
2026-04-27 10:56 28.04510 -16.57599 218 ft 6 kts 68°
2026-04-27 10:57 28.04531 -16.57540 216 ft 6 kts 68°
2026-04-27 10:57 28.04541 -16.57511 219 ft 6 kts 68°
2026-04-27 10:57 28.04556 -16.57468 218 ft 6 kts 68°
2026-04-27 10:57 28.04573 -16.57421 219 ft 8 kts 69°
2026-04-27 10:58 28.04597 -16.57349 218 ft 13 kts 69°
2026-04-27 10:58 28.04634 -16.57241 214 ft 17 kts 69°
2026-04-27 10:58 28.04686 -16.57114 216 ft 18 kts 63°
2026-04-27 10:58 28.04735 -16.56977 215 ft 19 kts 69°
2026-04-27 10:59 28.04789 -16.56819 210 ft 24 kts 69°
2026-04-27 10:59 28.04848 -16.56652 213 ft 23 kts 68°
2026-04-27 10:59 28.04905 -16.56488 218 ft 22 kts 68°
2026-04-27 11:00 28.05015 -16.56174 222 ft 21 kts 68°
2026-04-27 11:00 28.05068 -16.56023 223 ft 20 kts 68°
2026-04-27 11:00 28.05087 -16.55910 222 ft 0 kts 101°
2026-04-27 11:00 28.05085 -16.55900 221 ft 3 kts 103°
2026-04-27 11:01 28.05072 -16.55871 220 ft 5 kts 127°
2026-04-27 11:01 28.05035 -16.55846 219 ft 7 kts 159°
2026-04-27 11:01 28.04976 -16.55838 217 ft 10 kts 191°
2026-04-27 11:01 28.04924 -16.55883 216 ft 10 kts 243°
2026-04-27 11:02 28.04825 -16.56164 208 ft 78 kts 249°
2026-04-27 11:02 28.04535 -16.56998 207 ft 150 kts 248°
2026-04-27 11:02 28.04077 -16.58272 410 ft 184 kts 244°
2026-04-27 11:02 28.03566 -16.59708 1044 ft 210 kts 249°
2026-04-27 11:03 28.03036 -16.61346 1644 ft 234 kts 248°
2026-04-27 11:03 28.02355 -16.63131 2163 ft 255 kts 245°
2026-04-27 11:03 28.01497 -16.64899 2870 ft 252 kts 242°
2026-04-27 11:03 28.00772 -16.66633 3801 ft 242 kts 243°
2026-04-27 11:04 27.99607 -16.67983 4583 ft 245 kts 204°
2026-04-27 11:04 27.97938 -16.68226 5227 ft 247 kts 165°
2026-04-27 11:04 27.96388 -16.67396 5870 ft 247 kts 147°
2026-04-27 11:04 27.94873 -16.66426 6533 ft 252 kts 151°
2026-04-27 11:05 27.93294 -16.65584 7161 ft 255 kts 154°
2026-04-27 11:05 27.91666 -16.64753 7852 ft 255 kts 149°
2026-04-27 11:05 27.90357 -16.63438 8446 ft 253 kts 116°
2026-04-27 11:05 27.89898 -16.61555 8860 ft 261 kts 86°
2026-04-27 11:06 27.90303 -16.59480 9113 ft 277 kts 67°
2026-04-27 11:06 27.91062 -16.57457 9648 ft 286 kts 64°
2026-04-27 11:06 27.91880 -16.55383 10274 ft 291 kts 65°
2026-04-27 11:06 27.92719 -16.53224 10541 ft 310 kts 65°
2026-04-27 11:07 27.93598 -16.50926 10710 ft 331 kts 65°
2026-04-27 11:07 27.94538 -16.48437 10852 ft 352 kts 66°
2026-04-27 11:07 27.95524 -16.45810 11007 ft 371 kts 66°
2026-04-27 11:07 27.96553 -16.43061 11168 ft 387 kts 66°
2026-04-27 11:08 27.97599 -16.40261 11574 ft 394 kts 66°
2026-04-27 11:08 27.98667 -16.37393 12141 ft 396 kts 66°
2026-04-27 11:08 27.99743 -16.34508 12720 ft 398 kts 66°
2026-04-27 11:08 28.00859 -16.31616 13252 ft 401 kts 62°
2026-04-27 11:09 28.02183 -16.28877 13739 ft 403 kts 56°
2026-04-27 11:09 28.03830 -16.26295 14171 ft 406 kts 48°
2026-04-27 11:09 28.05759 -16.23946 14701 ft 406 kts 43°
2026-04-27 11:09 28.07789 -16.21695 15080 ft 411 kts 43°
2026-04-27 11:10 28.09813 -16.19369 15489 ft 416 kts 45°
2026-04-27 11:10 28.11757 -16.16953 15905 ft 420 kts 47°
2026-04-27 11:10 28.13666 -16.14406 16354 ft 423 kts 49°
2026-04-27 11:10 28.15521 -16.11829 16776 ft 427 kts 50°
2026-04-27 11:11 28.17417 -16.09196 17196 ft 431 kts 49°
2026-04-27 11:11 28.19348 -16.06556 17595 ft 435 kts 48°
2026-04-27 11:11 28.21414 -16.04088 17960 ft 438 kts 41°
2026-04-27 11:11 28.23990 -16.02229 18241 ft 440 kts 18°
2026-04-27 11:12 28.26997 -16.01714 18766 ft 434 kts 354°
2026-04-27 11:12 28.29887 -16.02422 19389 ft 427 kts 341°
2026-04-27 11:12 28.32735 -16.03448 19836 ft 429 kts 342°
2026-04-27 11:12 28.35662 -16.04316 20040 ft 437 kts 347°
2026-04-27 11:13 28.38644 -16.04865 20580 ft 436 kts 351°
2026-04-27 11:13 28.41678 -16.05265 20908 ft 440 kts 353°
2026-04-27 11:13 28.44707 -16.05615 21235 ft 443 kts 353°
2026-04-27 11:13 28.47772 -16.05975 21712 ft 442 kts 353°
2026-04-27 11:14 28.50855 -16.06362 21995 ft 446 kts 353°
2026-04-27 11:14 28.53959 -16.06778 22398 ft 447 kts 352°
2026-04-27 11:14 28.57050 -16.07209 22742 ft 449 kts 352°
2026-04-27 11:14 28.60124 -16.07647 23061 ft 451 kts 352°
2026-04-27 11:15 28.63237 -16.08093 23498 ft 450 kts 352°
2026-04-27 11:15 28.66371 -16.08543 23697 ft 455 kts 352°
2026-04-27 11:15 28.69524 -16.08994 23977 ft 456 kts 352°
2026-04-27 11:15 28.72636 -16.09438 24245 ft 457 kts 352°
2026-04-27 11:16 28.75807 -16.09890 24474 ft 459 kts 352°
2026-04-27 11:16 28.78987 -16.10344 24774 ft 460 kts 352°
2026-04-27 11:16 28.82171 -16.10798 24974 ft 463 kts 352°
2026-04-27 11:16 28.85379 -16.11256 25273 ft 463 kts 352°
2026-04-27 11:17 28.88551 -16.11709 25538 ft 464 kts 352°
2026-04-27 11:17 28.91761 -16.12168 25868 ft 463 kts 353°
2026-04-27 11:17 28.94964 -16.12515 26238 ft 462 kts
2026-04-27 11:17 28.98121 -16.11733 26441 ft 464 kts 22°
2026-04-27 11:18 29.00987 -16.10260 27320 ft 452 kts 23°
2026-04-27 11:18 29.03929 -16.08915 27573 ft 454 kts 17°
2026-04-27 11:18 29.06955 -16.07927 27628 ft 460 kts 13°
2026-04-27 11:18 29.10083 -16.07086 27911 ft 460 kts 12°
2026-04-27 11:19 29.13179 -16.06259 28481 ft 455 kts 13°
2026-04-27 11:19 29.16258 -16.05372 28799 ft 455 kts 14°
2026-04-27 11:19 29.19289 -16.04426 29066 ft 456 kts 15°
2026-04-27 11:19 29.22341 -16.03415 29469 ft 454 kts 15°
2026-04-27 11:20 29.25363 -16.02378 30009 ft 450 kts 16°
2026-04-27 11:20 29.28338 -16.01343 30271 ft 451 kts 16°
2026-04-27 11:20 29.31357 -16.00290 30429 ft 454 kts 16°
2026-04-27 11:20 29.34385 -15.99234 30653 ft 454 kts 15°
2026-04-27 11:21 29.37408 -15.98183 30953 ft 453 kts 15°
2026-04-27 11:21 29.40422 -15.97137 31269 ft 451 kts 15°
2026-04-27 11:21 29.43440 -15.96091 31539 ft 451 kts 15°
2026-04-27 11:21 29.46408 -15.95064 31782 ft 451 kts 15°
2026-04-27 11:22 29.49422 -15.94020 32017 ft 452 kts 15°
2026-04-27 11:22 29.52444 -15.92973 32270 ft 451 kts 15°
2026-04-27 11:22 29.55455 -15.91929 32531 ft 451 kts 15°
2026-04-27 11:22 29.58426 -15.90898 32801 ft 450 kts 15°
2026-04-27 11:23 29.61422 -15.89857 33043 ft 450 kts 15°
2026-04-27 11:23 29.64427 -15.88813 33267 ft 450 kts 15°
2026-04-27 11:23 29.67430 -15.87768 33493 ft 450 kts 15°
2026-04-27 11:23 29.70429 -15.86725 33743 ft 450 kts 15°
2026-04-27 11:24 29.73397 -15.85691 34001 ft 449 kts 14°
2026-04-27 11:24 29.76396 -15.84646 34197 ft 449 kts 14°
2026-04-27 11:24 29.79401 -15.83598 34343 ft 450 kts 14°
2026-04-27 11:24 29.82402 -15.82551 34489 ft 451 kts 14°
2026-04-27 11:25 29.85406 -15.81502 34677 ft 450 kts 14°
2026-04-27 11:25 29.88364 -15.80469 34881 ft 449 kts 14°
2026-04-27 11:25 29.91364 -15.79420 35067 ft 449 kts 14°
2026-04-27 11:25 29.94367 -15.78370 35072 ft 452 kts 14°
2026-04-27 11:26 30.00439 -15.77006 35007 ft 444 kts 350°
2026-04-27 11:26 30.03438 -15.77744 35169 ft 437 kts 344°
2026-04-27 11:26 30.06405 -15.78583 35103 ft 438 kts 346°
2026-04-27 11:27 30.12446 -15.79714 35094 ft 439 kts 351°
2026-04-27 11:27 30.18485 -15.80597 35098 ft 440 kts 351°
2026-04-27 11:28 30.24566 -15.81596 35087 ft 440 kts 350°
2026-04-27 11:28 30.30599 -15.82677 35094 ft 441 kts 349°
2026-04-27 11:29 30.36696 -15.83797 35096 ft 442 kts 349°
2026-04-27 11:29 30.42761 -15.84912 35095 ft 443 kts 349°
2026-04-27 11:30 30.48877 -15.86035 35092 ft 444 kts 349°
2026-04-27 11:30 30.54956 -15.87150 35096 ft 445 kts 349°
2026-04-27 11:31 30.61091 -15.88278 35093 ft 445 kts 349°
2026-04-27 11:31 30.67181 -15.89398 35096 ft 445 kts 349°
2026-04-27 11:32 30.73315 -15.90527 35091 ft 445 kts 349°
2026-04-27 11:32 30.79402 -15.91650 35090 ft 444 kts 349°
2026-04-27 11:33 30.85484 -15.92773 35093 ft 443 kts 349°
2026-04-27 11:33 30.91596 -15.93903 35098 ft 443 kts 349°
2026-04-27 11:34 30.97656 -15.95025 35095 ft 442 kts 349°
2026-04-27 11:34 31.03739 -15.96153 35096 ft 442 kts 349°
2026-04-27 11:35 31.09786 -15.97276 35103 ft 442 kts 349°
2026-04-27 11:35 31.15852 -15.98403 35102 ft 441 kts 349°
2026-04-27 11:36 31.21942 -15.99537 35100 ft 441 kts 349°
2026-04-27 11:36 31.28014 -16.00669 35103 ft 441 kts 349°
2026-04-27 11:37 31.34062 -16.01797 35101 ft 441 kts 349°
2026-04-27 11:37 31.40103 -16.02910 35098 ft 441 kts 352°
2026-04-27 11:38 31.43173 -16.02777 35062 ft 444 kts 12°
2026-04-27 11:38 31.46132 -16.01756 35120 ft 445 kts 17°
2026-04-27 11:38 31.51891 -15.99129 35097 ft 447 kts 20°
2026-04-27 11:39 31.57706 -15.96471 35093 ft 448 kts 18°
2026-04-27 11:39 31.63562 -15.94078 35095 ft 448 kts 17°
2026-04-27 11:40 31.69471 -15.91669 35093 ft 450 kts 17°
2026-04-27 11:40 31.75348 -15.89208 35097 ft 451 kts 18°
2026-04-27 11:41 31.81269 -15.86690 35094 ft 452 kts 18°
2026-04-27 11:41 31.87190 -15.84160 35103 ft 452 kts 18°
2026-04-27 11:42 31.93094 -15.81636 35098 ft 453 kts 18°
2026-04-27 11:42 31.99025 -15.79098 35107 ft 452 kts 18°
2026-04-27 11:43 32.04904 -15.76580 35097 ft 452 kts 18°
2026-04-27 11:43 32.10821 -15.74042 35102 ft 451 kts 18°
2026-04-27 11:44 32.15734 -15.71932 35098 ft 451 kts 18°
2026-04-27 11:44 32.22585 -15.68986 35104 ft 450 kts 18°
2026-04-27 11:45 32.27483 -15.66877 35102 ft 450 kts 18°
2026-04-27 11:45 32.32784 -15.64592 35104 ft 449 kts 18°
2026-04-27 11:46 32.38686 -15.62044 35104 ft 451 kts 18°
2026-04-27 11:46 32.44580 -15.59497 35108 ft 453 kts 18°
2026-04-27 11:47 32.50489 -15.56938 35104 ft 454 kts 18°
2026-04-27 11:47 32.56452 -15.54353 35105 ft 455 kts 18°
2026-04-27 11:48 32.62380 -15.51779 35105 ft 456 kts 18°
2026-04-27 11:48 32.68348 -15.49184 35101 ft 456 kts 18°
2026-04-27 11:49 32.74311 -15.46588 35098 ft 456 kts 18°
2026-04-27 11:49 32.80234 -15.44005 35097 ft 455 kts 18°
2026-04-27 11:50 32.86196 -15.41402 35105 ft 454 kts 18°
2026-04-27 11:50 32.92087 -15.38726 35023 ft 455 kts 20°
2026-04-27 11:51 32.97980 -15.35970 35086 ft 452 kts 18°
2026-04-27 11:52 33.06819 -15.32268 35099 ft 451 kts 18°
2026-04-27 11:52 33.12713 -15.29766 35106 ft 450 kts 18°
2026-04-27 11:53 33.18609 -15.27193 35101 ft 450 kts 18°
2026-04-27 11:53 33.24505 -15.24592 35089 ft 451 kts 18°
2026-04-27 11:54 33.30365 -15.22001 35111 ft 451 kts 18°
2026-04-27 11:54 33.36278 -15.19387 35102 ft 452 kts 18°
2026-04-27 11:55 33.42172 -15.16778 35103 ft 453 kts 18°
2026-04-27 11:55 33.48089 -15.14155 35097 ft 453 kts 18°
2026-04-27 11:56 33.54016 -15.11524 35102 ft 454 kts 18°
2026-04-27 11:56 33.59915 -15.08902 35104 ft 454 kts 18°
2026-04-27 11:57 33.65830 -15.06268 35097 ft 454 kts 18°
2026-04-27 11:57 33.71779 -15.03615 35100 ft 454 kts 19°
2026-04-27 11:58 33.77671 -15.00984 35103 ft 454 kts 19°
2026-04-27 11:58 33.83542 -14.98359 35110 ft 454 kts 19°
2026-04-27 11:59 33.89479 -14.95700 35091 ft 454 kts 19°
2026-04-27 11:59 33.95363 -14.93061 35102 ft 453 kts 19°
2026-04-27 12:00 34.01270 -14.90408 35108 ft 453 kts 19°
2026-04-27 12:00 34.07152 -14.87762 35104 ft 453 kts 19°
2026-04-27 12:01 34.13085 -14.85089 35105 ft 454 kts 19°
2026-04-27 12:01 34.19012 -14.82415 35094 ft 455 kts 19°
2026-04-27 12:02 34.24924 -14.79743 35107 ft 455 kts 19°
2026-04-27 12:02 34.30848 -14.77061 35092 ft 456 kts 19°
2026-04-27 12:03 34.36818 -14.74355 35108 ft 456 kts 19°
2026-04-27 12:03 34.42710 -14.71546 35090 ft 457 kts 22°
2026-04-27 12:04 34.48490 -14.68294 35106 ft 457 kts 25°
2026-04-27 12:04 34.54202 -14.64943 35105 ft 457 kts 25°
2026-04-27 12:05 34.59966 -14.61615 35087 ft 457 kts 24°
2026-04-27 12:05 34.65730 -14.58334 35101 ft 457 kts 24°
2026-04-27 12:06 34.71468 -14.55081 35093 ft 457 kts 24°
2026-04-27 12:06 34.77248 -14.51798 35107 ft 457 kts 24°
2026-04-27 12:07 34.83001 -14.48523 35089 ft 458 kts 24°
2026-04-27 12:07 34.88763 -14.45235 35093 ft 459 kts 24°
2026-04-27 12:08 34.94579 -14.41912 35099 ft 460 kts 24°
2026-04-27 12:08 35.00370 -14.38598 35092 ft 462 kts 24°
2026-04-27 12:09 35.06175 -14.35271 35095 ft 462 kts 24°
2026-04-27 12:09 35.12026 -14.31911 35090 ft 463 kts 24°
2026-04-27 12:10 35.17831 -14.28574 35090 ft 463 kts 24°
2026-04-27 12:10 35.23673 -14.25210 35102 ft 463 kts 24°
2026-04-27 12:11 35.29477 -14.21861 35085 ft 463 kts 24°
2026-04-27 12:11 35.35327 -14.18482 35093 ft 463 kts 25°
2026-04-27 12:12 35.41133 -14.15123 35086 ft 463 kts 25°
2026-04-27 12:12 35.46943 -14.11755 35092 ft 463 kts 25°
2026-04-27 12:13 35.52797 -14.08356 35087 ft 464 kts 25°
2026-04-27 12:13 35.58604 -14.04980 35091 ft 464 kts 25°
2026-04-27 12:14 35.64453 -14.01573 35087 ft 464 kts 25°
2026-04-27 12:14 35.70227 -13.98205 35089 ft 465 kts 25°
2026-04-27 12:15 35.76091 -13.94779 35097 ft 465 kts 25°
2026-04-27 12:15 35.81935 -13.91358 35091 ft 465 kts 25°
2026-04-27 12:16 35.87751 -13.87949 35093 ft 465 kts 25°
2026-04-27 12:16 35.93608 -13.84509 35079 ft 465 kts 25°
2026-04-27 12:17 35.99425 -13.81089 35096 ft 465 kts 25°
2026-04-27 12:17 36.05257 -13.77653 35087 ft 466 kts 25°
2026-04-27 12:18 36.11137 -13.74183 35085 ft 467 kts 25°
2026-04-27 12:18 36.16986 -13.70725 35095 ft 467 kts 25°
2026-04-27 12:19 36.22873 -13.67239 35090 ft 468 kts 25°
2026-04-27 12:19 36.28721 -13.63771 35088 ft 468 kts 25°
2026-04-27 12:20 36.34591 -13.60284 35087 ft 468 kts 25°
2026-04-27 12:20 36.40478 -13.56781 35088 ft 467 kts 25°
2026-04-27 12:21 36.46313 -13.53302 35095 ft 467 kts 25°
2026-04-27 12:21 36.52150 -13.49817 35091 ft 466 kts 26°
2026-04-27 12:22 36.58016 -13.46308 35082 ft 466 kts 26°
2026-04-27 12:22 36.63832 -13.42808 35083 ft 466 kts 27°
2026-04-27 12:23 36.69586 -13.39140 35097 ft 466 kts 28°
2026-04-27 12:23 36.75350 -13.35382 35098 ft 466 kts 28°
2026-04-27 12:24 36.81092 -13.31650 35083 ft 467 kts 28°
2026-04-27 12:24 36.86882 -13.27902 35087 ft 467 kts 27°
2026-04-27 12:25 36.92635 -13.24180 35089 ft 467 kts 27°
2026-04-27 12:25 36.98390 -13.20451 35093 ft 467 kts 27°
2026-04-27 12:26 37.04151 -13.16711 35082 ft 467 kts 27°
2026-04-27 12:26 37.09890 -13.12978 35083 ft 466 kts 28°
2026-04-27 12:27 37.15667 -13.09215 35084 ft 466 kts 28°
2026-04-27 12:27 37.21404 -13.05470 35087 ft 466 kts 28°
2026-04-27 12:28 37.27147 -13.01715 35079 ft 466 kts 28°
2026-04-27 12:28 37.32802 -12.98011 35086 ft 467 kts 28°
2026-04-27 12:29 37.38582 -12.94219 35088 ft 467 kts 28°
2026-04-27 12:29 37.44325 -12.90444 35085 ft 467 kts 28°
2026-04-27 12:30 37.50109 -12.86636 35086 ft 468 kts 28°
2026-04-27 12:30 37.55860 -12.82843 35106 ft 468 kts 28°
2026-04-27 12:31 37.61652 -12.79016 35087 ft 469 kts 28°
2026-04-27 12:31 37.67438 -12.75186 35082 ft 469 kts 28°
2026-04-27 12:32 37.73205 -12.71363 35085 ft 470 kts 28°
2026-04-27 12:32 37.78034 -12.68156 35086 ft 470 kts 28°
2026-04-27 12:33 37.83809 -12.64313 35085 ft 471 kts 28°
2026-04-27 12:33 37.89609 -12.60448 35083 ft 471 kts 28°
2026-04-27 12:34 37.95409 -12.56576 35083 ft 471 kts 28°
2026-04-27 12:34 38.01209 -12.52697 35079 ft 471 kts 28°
2026-04-27 12:35 38.06989 -12.48824 35098 ft 471 kts 28°
2026-04-27 12:35 38.12801 -12.44923 35072 ft 472 kts 28°
2026-04-27 12:36 38.18609 -12.41018 35087 ft 471 kts 28°
2026-04-27 12:36 38.24417 -12.37106 35076 ft 472 kts 28°
2026-04-27 12:37 38.30200 -12.33202 35072 ft 472 kts 28°
2026-04-27 12:37 38.35994 -12.29285 35072 ft 473 kts 28°
2026-04-27 12:38 38.41821 -12.25338 35089 ft 473 kts 28°
2026-04-27 12:38 38.47617 -12.21405 35086 ft 474 kts 28°
2026-04-27 12:39 38.53465 -12.17429 35095 ft 474 kts 28°
2026-04-27 12:39 38.59266 -12.13477 35070 ft 475 kts 28°
2026-04-27 12:40 38.65117 -12.09485 35068 ft 475 kts 28°
2026-04-27 12:40 38.70922 -12.05517 35076 ft 475 kts 28°
2026-04-27 12:41 38.76758 -12.01519 35096 ft 474 kts 28°
2026-04-27 12:41 38.82488 -11.97587 35079 ft 474 kts 28°
2026-04-27 12:42 38.88316 -11.93580 35074 ft 475 kts 28°
2026-04-27 12:42 38.94111 -11.89588 35073 ft 475 kts 28°
2026-04-27 12:43 38.99943 -11.85565 35099 ft 474 kts 28°
2026-04-27 12:43 39.05738 -11.81557 35073 ft 475 kts 28°
2026-04-27 12:44 39.11543 -11.77537 35073 ft 475 kts 28°
2026-04-27 12:44 39.14469 -11.75507 34917 ft 479 kts 28°
2026-04-27 12:44 39.17413 -11.73463 34615 ft 480 kts 28°
2026-04-27 12:44 39.20322 -11.71441 34409 ft 476 kts 28°
2026-04-27 12:45 39.23248 -11.69405 34161 ft 476 kts 28°
2026-04-27 12:45 39.26168 -11.67372 33904 ft 476 kts 28°
2026-04-27 12:45 39.29090 -11.65334 33648 ft 476 kts 28°
2026-04-27 12:45 39.31969 -11.63326 33374 ft 476 kts 28°
2026-04-27 12:46 39.34889 -11.61287 33116 ft 477 kts 28°
2026-04-27 12:46 39.37810 -11.59226 32854 ft 478 kts 30°
2026-04-27 12:46 39.40680 -11.57024 32588 ft 479 kts 32°
2026-04-27 12:46 39.43505 -11.54694 32341 ft 480 kts 33°
2026-04-27 12:47 39.46273 -11.52319 32128 ft 483 kts 33°
2026-04-27 12:47 39.51905 -11.47441 32125 ft 487 kts 33°
2026-04-27 12:48 39.57539 -11.42632 32103 ft 483 kts 33°
2026-04-27 12:48 39.63176 -11.37874 32085 ft 482 kts 33°
2026-04-27 12:49 39.68768 -11.33163 32072 ft 481 kts 33°
2026-04-27 12:49 39.74400 -11.28406 32071 ft 482 kts 32°
2026-04-27 12:50 39.80005 -11.23659 32096 ft 482 kts 32°
2026-04-27 12:50 39.85649 -11.18868 32090 ft 483 kts 32°
2026-04-27 12:51 39.91262 -11.14093 32086 ft 484 kts 33°
2026-04-27 12:51 39.96925 -11.09266 32074 ft 486 kts 32°
2026-04-27 12:52 40.02566 -11.04449 32083 ft 487 kts 32°
2026-04-27 12:52 40.08181 -10.99644 32080 ft 488 kts 32°
2026-04-27 12:53 40.16683 -10.92349 32077 ft 488 kts 33°
2026-04-27 12:53 40.22360 -10.87466 32077 ft 488 kts 33°
2026-04-27 12:54 40.27997 -10.82609 32072 ft 488 kts 33°
2026-04-27 12:54 40.33679 -10.77702 32079 ft 487 kts 33°
2026-04-27 12:55 40.39337 -10.72806 32069 ft 487 kts 33°
2026-04-27 12:55 40.44954 -10.67934 32072 ft 486 kts 32°
2026-04-27 12:56 40.50601 -10.63027 32069 ft 486 kts 33°
2026-04-27 12:56 40.56240 -10.58117 32076 ft 486 kts 33°
2026-04-27 12:57 40.61881 -10.53195 32065 ft 486 kts 33°
2026-04-27 12:57 40.67477 -10.48303 32081 ft 486 kts 32°
2026-04-27 12:58 40.73122 -10.43358 32064 ft 486 kts 32°
2026-04-27 12:58 40.78732 -10.38434 32070 ft 487 kts 33°
2026-04-27 12:59 40.84382 -10.33464 32069 ft 487 kts 33°
2026-04-27 12:59 40.90033 -10.28482 32077 ft 488 kts 32°
2026-04-27 13:00 40.95655 -10.23515 32067 ft 488 kts 32°
2026-04-27 13:00 41.01321 -10.18500 32068 ft 489 kts 32°
2026-04-27 13:01 41.06953 -10.13503 32071 ft 489 kts 33°
2026-04-27 13:01 41.12625 -10.08462 32070 ft 490 kts 32°
2026-04-27 13:02 41.18264 -10.03438 32065 ft 490 kts 32°
2026-04-27 13:02 41.23842 -9.98458 32066 ft 490 kts 32°
2026-04-27 13:03 41.29502 -9.93395 32065 ft 490 kts 32°
2026-04-27 13:03 41.35162 -9.88321 32071 ft 490 kts 32°
2026-04-27 13:04 41.40825 -9.83233 32060 ft 490 kts 32°
2026-04-27 13:04 41.46477 -9.78144 32056 ft 491 kts 32°
2026-04-27 13:05 41.52133 -9.73041 32062 ft 490 kts 32°
2026-04-27 13:05 41.57784 -9.67932 32052 ft 491 kts 32°
2026-04-27 13:06 41.63408 -9.62835 32064 ft 491 kts 33°
2026-04-27 13:06 41.69055 -9.57707 32057 ft 491 kts 33°
2026-04-27 13:07 41.74709 -9.52560 32054 ft 491 kts 33°
2026-04-27 13:07 41.80339 -9.47425 32052 ft 491 kts 33°
2026-04-27 13:08 41.85999 -9.42250 32056 ft 491 kts 33°
2026-04-27 13:08 41.91636 -9.37129 32047 ft 491 kts 31°
2026-04-27 13:09 41.97686 -9.32875 32063 ft 488 kts 19°
2026-04-27 13:09 42.04108 -9.30102 32053 ft 486 kts 12°
2026-04-27 13:10 42.10662 -9.27668 32028 ft 487 kts 14°
2026-04-27 13:10 42.17102 -9.24963 32050 ft 488 kts 15°
2026-04-27 13:11 42.23545 -9.22013 32056 ft 488 kts 17°
2026-04-27 13:11 42.29947 -9.19010 32049 ft 490 kts 16°
2026-04-27 13:12 42.36394 -9.15992 32053 ft 490 kts 16°
2026-04-27 13:12 42.42837 -9.12989 32044 ft 491 kts 16°
2026-04-27 13:13 42.49312 -9.09971 32055 ft 491 kts 16°
2026-04-27 13:13 42.55782 -9.06949 32050 ft 491 kts 16°
2026-04-27 13:14 42.62215 -9.03936 32062 ft 491 kts 16°
2026-04-27 13:14 42.68668 -9.00906 32081 ft 492 kts 16°
2026-04-27 13:15 42.75104 -8.97877 32058 ft 493 kts 16°
2026-04-27 13:15 42.81564 -8.94830 32086 ft 493 kts 16°
2026-04-27 13:16 42.88067 -8.91757 32097 ft 493 kts 16°
2026-04-27 13:16 42.94521 -8.88699 32099 ft 494 kts 15°
2026-04-27 13:17 43.01028 -8.85610 32126 ft 494 kts 15°
2026-04-27 13:17 43.07502 -8.82531 32130 ft 494 kts 15°
2026-04-27 13:18 43.14031 -8.79418 32110 ft 496 kts 15°
2026-04-27 13:18 43.20515 -8.76318 32124 ft 495 kts 15°
2026-04-27 13:19 43.27040 -8.73192 32137 ft 495 kts 15°
2026-04-27 13:19 43.33524 -8.70080 32137 ft 496 kts 16°
2026-04-27 13:20 43.40027 -8.66951 32146 ft 496 kts 16°
2026-04-27 13:20 43.46527 -8.63815 32127 ft 496 kts 16°
2026-04-27 13:21 43.51962 -8.61188 32153 ft 495 kts 16°
2026-04-27 13:21 43.59542 -8.57517 32142 ft 495 kts 16°
2026-04-27 13:22 43.64941 -8.54895 32149 ft 494 kts 16°
2026-04-27 13:22 43.71437 -8.51734 32179 ft 493 kts 16°
2026-04-27 13:23 43.77900 -8.48583 32146 ft 492 kts 16°
2026-04-27 13:23 43.84326 -8.45441 32172 ft 489 kts 16°
2026-04-27 13:24 43.90731 -8.42303 32149 ft 488 kts 16°
2026-04-27 13:24 43.97108 -8.39171 32173 ft 486 kts 16°
2026-04-27 13:25 44.03456 -8.36048 32155 ft 485 kts 16°
2026-04-27 13:25 44.09813 -8.32912 32177 ft 484 kts 16°
2026-04-27 13:26 44.16147 -8.29781 32181 ft 485 kts 16°
2026-04-27 13:26 44.22490 -8.26638 32171 ft 486 kts 16°
2026-04-27 13:27 44.28881 -8.23464 32192 ft 486 kts 17°
2026-04-27 13:27 44.35240 -8.20299 32191 ft 488 kts 17°
2026-04-27 13:28 44.41659 -8.17096 32187 ft 489 kts 17°
2026-04-27 13:28 44.48084 -8.13882 32190 ft 489 kts 17°
2026-04-27 13:29 44.54461 -8.10685 32193 ft 489 kts 17°
2026-04-27 13:29 44.60893 -8.07453 32188 ft 490 kts 17°
2026-04-27 13:30 44.67320 -8.04215 32191 ft 489 kts 17°
2026-04-27 13:30 44.73700 -8.00994 32210 ft 489 kts 17°
2026-04-27 13:31 44.80053 -7.97779 32202 ft 488 kts 17°
2026-04-27 13:31 44.86407 -7.94555 32193 ft 487 kts 17°
2026-04-27 13:32 44.92796 -7.91306 32211 ft 486 kts 17°
2026-04-27 13:32 44.99185 -7.88133 32178 ft 484 kts 14°
2026-04-27 13:33 45.05672 -7.85960 32197 ft 479 kts
2026-04-27 13:33 45.12232 -7.84730 32233 ft 476 kts
2026-04-27 13:34 45.18811 -7.83506 32213 ft 475 kts
2026-04-27 13:34 45.25336 -7.82059 32198 ft 476 kts
2026-04-27 13:35 45.31854 -7.80489 32213 ft 476 kts
2026-04-27 13:35 45.38395 -7.78889 32214 ft 475 kts
2026-04-27 13:36 45.44892 -7.77304 32212 ft 474 kts
2026-04-27 13:36 45.51388 -7.75725 32224 ft 475 kts
2026-04-27 13:37 45.57911 -7.74141 32213 ft 475 kts
2026-04-27 13:37 45.64413 -7.72556 32208 ft 475 kts
2026-04-27 13:38 45.70909 -7.70969 32221 ft 475 kts
2026-04-27 13:38 45.77438 -7.69370 32209 ft 475 kts
2026-04-27 13:39 45.83918 -7.67779 32227 ft 474 kts
2026-04-27 13:39 45.90433 -7.66175 32215 ft 473 kts
2026-04-27 13:40 45.96933 -7.64573 32209 ft 472 kts
2026-04-27 13:40 46.03363 -7.62982 32224 ft 470 kts
2026-04-27 13:41 46.09818 -7.61382 32232 ft 469 kts
2026-04-27 13:41 46.16208 -7.59794 32223 ft 468 kts
2026-04-27 13:42 46.22627 -7.58196 32221 ft 467 kts
2026-04-27 13:42 46.29011 -7.56602 32223 ft 467 kts
2026-04-27 13:43 46.35436 -7.54995 32239 ft 467 kts
2026-04-27 13:43 46.41822 -7.53393 32217 ft 467 kts
2026-04-27 13:44 46.48237 -7.51780 32238 ft 467 kts
2026-04-27 13:44 46.54634 -7.50168 32208 ft 467 kts
2026-04-27 13:45 46.61054 -7.48546 32238 ft 467 kts
2026-04-27 13:45 46.67450 -7.46926 32220 ft 468 kts
2026-04-27 13:46 46.73837 -7.45305 32235 ft 468 kts
2026-04-27 13:46 46.80262 -7.43671 32223 ft 467 kts
2026-04-27 13:47 46.86645 -7.42043 32229 ft 467 kts
2026-04-27 13:47 46.93067 -7.40400 32220 ft 467 kts
2026-04-27 13:48 46.99427 -7.38772 32214 ft 461 kts
2026-04-27 13:48 47.05760 -7.37144 32247 ft 465 kts
2026-04-27 13:49 47.12155 -7.35496 32256 ft 470 kts
2026-04-27 13:49 47.18598 -7.33834 32239 ft 465 kts
2026-04-27 13:50 47.24910 -7.32200 32225 ft 458 kts
2026-04-27 13:50 47.31161 -7.30578 32244 ft 458 kts
2026-04-27 13:51 47.37468 -7.28938 32252 ft 458 kts 10°
2026-04-27 13:51 47.43707 -7.27315 32242 ft 456 kts 10°
2026-04-27 13:52 47.49970 -7.25677 32250 ft 454 kts 10°
2026-04-27 13:52 47.56162 -7.24053 32235 ft 453 kts 10°
2026-04-27 13:53 47.65433 -7.21619 32244 ft 450 kts 11°
2026-04-27 13:54 47.71586 -7.19997 32236 ft 448 kts 11°
2026-04-27 13:54 47.77705 -7.18379 32248 ft 447 kts 11°
2026-04-27 13:55 47.83828 -7.16759 32263 ft 446 kts 11°
2026-04-27 13:55 47.89922 -7.15141 32250 ft 445 kts 12°
2026-04-27 13:56 47.96039 -7.13513 32266 ft 445 kts 12°
2026-04-27 13:56 48.02123 -7.11890 32251 ft 445 kts 12°
2026-04-27 13:57 48.08219 -7.10262 32266 ft 444 kts 12°
2026-04-27 13:57 48.14263 -7.08642 32260 ft 443 kts 12°
2026-04-27 13:58 48.20338 -7.07009 32272 ft 442 kts 12°
2026-04-27 13:58 48.26356 -7.05390 32279 ft 439 kts 13°
2026-04-27 13:59 48.32374 -7.03766 32260 ft 436 kts 13°
2026-04-27 13:59 48.38311 -7.02157 32269 ft 434 kts 13°
2026-04-27 14:00 48.44253 -7.00545 32258 ft 432 kts 13°
2026-04-27 14:00 48.50005 -6.98808 32235 ft 427 kts 19°
2026-04-27 14:00 48.52734 -6.97126 32227 ft 420 kts 33°
2026-04-27 14:01 48.55162 -6.94723 32399 ft 415 kts 36°
2026-04-27 14:01 48.57587 -6.92328 32286 ft 420 kts 32°
2026-04-27 14:01 48.60177 -6.90200 32322 ft 425 kts 28°
2026-04-27 14:02 48.65565 -6.86317 32309 ft 431 kts 27°
2026-04-27 14:02 48.70928 -6.82321 32305 ft 430 kts 29°
2026-04-27 14:03 48.76249 -6.78123 32305 ft 429 kts 30°
2026-04-27 14:03 48.81504 -6.73877 32301 ft 429 kts 30°
2026-04-27 14:04 48.86774 -6.69599 32291 ft 429 kts 30°
2026-04-27 14:04 48.92006 -6.65350 32281 ft 426 kts 30°
2026-04-27 14:05 48.97225 -6.61106 32276 ft 423 kts 30°
2026-04-27 14:05 49.02386 -6.56899 32299 ft 421 kts 30°
2026-04-27 14:06 49.07524 -6.52700 32290 ft 421 kts 30°
2026-04-27 14:06 49.12703 -6.48459 32273 ft 421 kts 30°
2026-04-27 14:07 49.17827 -6.44252 32285 ft 419 kts 30°
2026-04-27 14:07 49.22939 -6.40046 32299 ft 417 kts 30°
2026-04-27 14:08 49.28070 -6.35813 32312 ft 416 kts 30°
2026-04-27 14:08 49.33153 -6.31610 32295 ft 416 kts 30°
2026-04-27 14:09 49.38250 -6.27385 32302 ft 414 kts 31°
2026-04-27 14:09 49.43276 -6.23209 32296 ft 413 kts 30°
2026-04-27 14:10 49.47489 -6.19702 32313 ft 413 kts 30°
2026-04-27 14:10 49.52745 -6.16124 32250 ft 420 kts 15°
2026-04-27 14:10 49.55671 -6.15675 32386 ft 423 kts
2026-04-27 14:11 49.58630 -6.15727 32316 ft 426 kts
2026-04-27 14:11 49.64576 -6.16374 32301 ft 428 kts
2026-04-27 14:12 49.70477 -6.17135 32301 ft 428 kts
2026-04-27 14:12 49.76385 -6.17866 32307 ft 427 kts
2026-04-27 14:13 49.82329 -6.18580 32287 ft 426 kts
2026-04-27 14:13 49.88214 -6.19283 32307 ft 425 kts
2026-04-27 14:14 49.94131 -6.19991 32316 ft 425 kts
2026-04-27 14:14 50.00008 -6.20697 32336 ft 424 kts
2026-04-27 14:15 50.05888 -6.21404 32318 ft 424 kts
2026-04-27 14:15 50.11759 -6.22113 32315 ft 423 kts
2026-04-27 14:16 50.17651 -6.22827 32315 ft 423 kts
2026-04-27 14:16 50.23493 -6.23537 32319 ft 423 kts
2026-04-27 14:17 50.29369 -6.24251 32334 ft 422 kts
2026-04-27 14:17 50.35241 -6.24967 32331 ft 422 kts
2026-04-27 14:18 50.41070 -6.25681 32317 ft 422 kts
2026-04-27 14:18 50.46944 -6.26401 32337 ft 422 kts
2026-04-27 14:19 50.52770 -6.27116 32336 ft 421 kts 360°
2026-04-27 14:19 50.58594 -6.27835 32332 ft 421 kts 360°
2026-04-27 14:20 50.64444 -6.28558 32347 ft 420 kts 360°
2026-04-27 14:20 50.70272 -6.29280 32339 ft 421 kts 360°
2026-04-27 14:21 50.76122 -6.30006 32341 ft 420 kts 359°
2026-04-27 14:21 50.81919 -6.30728 32343 ft 419 kts 359°
2026-04-27 14:22 50.87758 -6.31457 32340 ft 419 kts 359°
2026-04-27 14:22 50.93556 -6.32465 32336 ft 421 kts 355°
2026-04-27 14:23 50.99312 -6.34163 32357 ft 423 kts 352°
2026-04-27 14:23 51.05067 -6.36150 32358 ft 422 kts 353°
2026-04-27 14:24 51.10814 -6.37973 32351 ft 422 kts 354°
2026-04-27 14:24 51.16588 -6.39699 32344 ft 421 kts 354°
2026-04-27 14:25 51.22332 -6.41407 32349 ft 421 kts 353°
2026-04-27 14:25 51.28060 -6.43126 32358 ft 420 kts 353°
2026-04-27 14:26 51.33836 -6.44709 32351 ft 420 kts 355°
2026-04-27 14:26 51.39620 -6.46174 32355 ft 419 kts 355°
2026-04-27 14:27 51.45352 -6.47644 32360 ft 419 kts 354°
2026-04-27 14:27 51.51112 -6.49148 32359 ft 418 kts 354°
2026-04-27 14:28 51.56828 -6.50651 32362 ft 418 kts 354°
2026-04-27 14:28 51.62597 -6.52171 32366 ft 418 kts 354°
2026-04-27 14:29 51.68337 -6.53686 32367 ft 417 kts 354°
2026-04-27 14:29 51.74050 -6.55198 32365 ft 417 kts 353°
2026-04-27 14:30 51.79775 -6.56383 32339 ft 415 kts
2026-04-27 14:30 51.85504 -6.55799 32373 ft 412 kts
2026-04-27 14:31 51.91209 -6.54659 32368 ft 412 kts
2026-04-27 14:31 51.96887 -6.53653 32363 ft 412 kts
2026-04-27 14:32 52.02604 -6.52775 32369 ft 412 kts
2026-04-27 14:32 52.08280 -6.51950 32372 ft 412 kts
2026-04-27 14:33 52.14004 -6.51123 32376 ft 412 kts
2026-04-27 14:33 52.19695 -6.50296 32364 ft 412 kts
2026-04-27 14:34 52.25424 -6.49459 32381 ft 411 kts
2026-04-27 14:34 52.31105 -6.48627 32372 ft 412 kts
2026-04-27 14:35 52.36833 -6.47784 32375 ft 411 kts
2026-04-27 14:35 52.42505 -6.46948 32374 ft 411 kts
2026-04-27 14:36 52.48219 -6.46103 32370 ft 411 kts
2026-04-27 14:36 52.53888 -6.45264 32370 ft 410 kts
2026-04-27 14:37 52.59586 -6.44418 32379 ft 410 kts
2026-04-27 14:37 52.65221 -6.43578 32386 ft 408 kts
2026-04-27 14:38 52.70884 -6.42733 32382 ft 407 kts
2026-04-27 14:38 52.76535 -6.41887 32383 ft 407 kts
2026-04-27 14:39 52.82189 -6.41039 32387 ft 407 kts
2026-04-27 14:39 52.87799 -6.40194 32386 ft 406 kts
2026-04-27 14:40 52.93437 -6.39343 32382 ft 405 kts
2026-04-27 14:40 52.99022 -6.38499 32364 ft 406 kts
2026-04-27 14:41 53.04642 -6.37647 32372 ft 405 kts
2026-04-27 14:41 53.10258 -6.36793 32377 ft 406 kts
2026-04-27 14:42 53.15899 -6.35932 32377 ft 406 kts
2026-04-27 14:42 53.21492 -6.35078 32389 ft 406 kts
2026-04-27 14:43 53.27137 -6.34213 32392 ft 406 kts
2026-04-27 14:43 53.32739 -6.33352 32390 ft 406 kts
2026-04-27 14:44 53.38385 -6.32482 32409 ft 406 kts
2026-04-27 14:44 53.43984 -6.31617 32393 ft 406 kts
2026-04-27 14:45 53.49633 -6.30715 32382 ft 406 kts
2026-04-27 14:45 53.55170 -6.28981 32383 ft 407 kts 12°
2026-04-27 14:46 53.60627 -6.26297 32389 ft 408 kts 15°
2026-04-27 14:46 53.66079 -6.23507 32411 ft 408 kts 13°
2026-04-27 14:47 53.71531 -6.20932 32376 ft 407 kts 12°
2026-04-27 14:47 53.76960 -6.18463 32368 ft 405 kts 12°
2026-04-27 14:48 53.82411 -6.15991 32365 ft 404 kts 12°
2026-04-27 14:48 53.90565 -6.12267 32388 ft 403 kts 12°
2026-04-27 14:49 53.95956 -6.09795 32378 ft 403 kts 12°
2026-04-27 14:49 54.01370 -6.07305 32370 ft 403 kts 13°
2026-04-27 14:50 54.06635 -6.04010 32392 ft 407 kts 21°
2026-04-27 14:50 54.11651 -5.99720 32376 ft 408 kts 22°
2026-04-27 14:51 54.16704 -5.95375 32403 ft 407 kts 22°
2026-04-27 14:51 54.20943 -5.91837 32397 ft 407 kts 21°
2026-04-27 14:52 54.26888 -5.86936 32387 ft 407 kts 21°
2026-04-27 14:52 54.32001 -5.82719 32380 ft 407 kts 21°
2026-04-27 14:53 54.37099 -5.78498 32384 ft 407 kts 21°
2026-04-27 14:53 54.42205 -5.74257 32368 ft 407 kts 21°
2026-04-27 14:54 54.47292 -5.70019 32380 ft 407 kts 21°
2026-04-27 14:54 54.52372 -5.65776 32371 ft 407 kts 21°
2026-04-27 14:55 54.57473 -5.61500 32383 ft 407 kts 22°
2026-04-27 14:55 54.62235 -5.56144 32289 ft 419 kts 37°
2026-04-27 14:56 54.64317 -5.52528 31659 ft 426 kts 40°
2026-04-27 14:56 54.66367 -5.48826 31007 ft 422 kts 38°
2026-04-27 14:56 54.67765 -5.46507 30480 ft 420 kts 36°
2026-04-27 14:56 54.70726 -5.42220 29356 ft 417 kts 33°
2026-04-27 14:57 54.72992 -5.39055 28471 ft 418 kts 33°
2026-04-27 14:57 54.74484 -5.36927 27899 ft 419 kts 33°
2026-04-27 14:57 54.76712 -5.33657 27003 ft 420 kts 34°
2026-04-27 14:57 54.78923 -5.30321 26110 ft 422 kts 34°
2026-04-27 14:58 54.81105 -5.26969 25579 ft 415 kts 35°
2026-04-27 14:58 54.83248 -5.23669 24847 ft 414 kts 35°
2026-04-27 14:58 54.85390 -5.20373 24258 ft 409 kts 35°
2026-04-27 14:58 54.87539 -5.17122 23533 ft 406 kts 33°
2026-04-27 14:59 54.89792 -5.14233 22793 ft 397 kts 25°
2026-04-27 14:59 54.92264 -5.12244 22228 ft 385 kts 16°
2026-04-27 14:59 54.94762 -5.10623 21527 ft 382 kts 16°
2026-04-27 14:59 54.97178 -5.08799 21009 ft 381 kts 21°
2026-04-27 15:00 54.99518 -5.06595 20350 ft 382 kts 24°
2026-04-27 15:00 55.01842 -5.04297 19779 ft 388 kts 23°
2026-04-27 15:00 55.04217 -5.02071 19155 ft 391 kts 22°
2026-04-27 15:00 55.06613 -4.99949 18537 ft 386 kts 21°
2026-04-27 15:01 55.08975 -4.97864 17827 ft 384 kts 23°
2026-04-27 15:01 55.11115 -4.95137 17236 ft 394 kts 45°
2026-04-27 15:01 55.12476 -4.91014 17198 ft 390 kts 58°
2026-04-27 15:01 55.13506 -4.86600 16907 ft 400 kts 62°
2026-04-27 15:02 55.14500 -4.81989 16652 ft 407 kts 63°
2026-04-27 15:02 55.15521 -4.77356 16412 ft 405 kts 62°
2026-04-27 15:02 55.16602 -4.72822 16186 ft 402 kts 60°
2026-04-27 15:02 55.17758 -4.68385 15974 ft 400 kts 59°
2026-04-27 15:03 55.18919 -4.64018 15759 ft 399 kts 59°
2026-04-27 15:03 55.20079 -4.59593 15529 ft 398 kts 60°
2026-04-27 15:03 55.21217 -4.55156 15300 ft 397 kts 60°
2026-04-27 15:03 55.22319 -4.50772 15083 ft 396 kts 61°
2026-04-27 15:04 55.23414 -4.46350 14872 ft 395 kts 61°
2026-04-27 15:04 55.24488 -4.41974 14657 ft 394 kts 62°
2026-04-27 15:04 55.25567 -4.37556 14457 ft 393 kts 62°
2026-04-27 15:04 55.26645 -4.33127 14222 ft 393 kts 62°
2026-04-27 15:05 55.27715 -4.28718 13972 ft 391 kts 63°
2026-04-27 15:05 55.28778 -4.24327 13745 ft 389 kts 63°
2026-04-27 15:05 55.29819 -4.20014 13516 ft 379 kts 63°
2026-04-27 15:05 55.30842 -4.15771 13303 ft 379 kts 63°